User: anonymous   Login
Location: Unspecified
(0.0000°N, 0.0000°E)
Time: 12:34:22
(UTC+00:00)
Language:

COSMO-SKYMED 1 - Orbit

View from above orbital plane
View from above orbital plane
View from above satellite
View from above satellite

Ground track
Ground track

The orbit data is extracted from the following two-line orbital elements,

1 31598U 07023A   18294.17813140 -.00000277  00000-0 -28218-4 0  9990
2 31598  97.8902 115.9719 0001514 100.2554 259.8801 14.82149865615175
Epoch (UTC): 21 October 2018 04:16:30
Eccentricity: 0.0001514
inclination: 97.8902°
perigee height: 621 km
apogee height: 623 km
right ascension of ascending node: 115.9719°
argument of perigee: 100.2554°
revolutions per day: 14.82149865
mean anomaly at epoch: 259.8801°
orbit number at epoch: 61517

The dashed part of the orbit path shows where the satellite is in the earth's shadow,  

DLR